sat.trackr.live / text

‹ back to catalog

ONEWEB-0653

NORAD 55815 · 2023-029V

PAYLOAD ACTIVE UNKNOWN

§ Identity

Operator
Country
UK
Launch date
2023-03-09
Launch site
AFETR
Launch vehicle
Mass (kg)
RCS (m²)

Purposes: comms

External: N2YO · Heavens-Above · Gunter

§ Orbital elements

Epoch: 2026-09-19T18:26:47.512608Z

Period
109.55 min
Inclination
87.8894°
Eccentricity
0.0002024
Mean motion
13.14505100 rev/d
Perigee alt
1,204.2 km
Apogee alt
1,207.3 km
Semi-major
7,583.9 km
B*
1.5260e-4
RAAN
270.8440°
Arg perigee
90.2033°
Mean anomaly
269.9328°
Rev number
17,182

§ Raw data

ONEWEB-06531 55815U 23029V   26262.76860547  .00000069  00000+0  15260-3 0  99922 55815  87.8894 270.8440 0002024  90.2033 269.9328 13.14505100171828

JSON: /api/v1/satellites/55815 · /tle

For live sub-satellite position, see the globe view (requires WebGL).

§ Visibility from observer

Set your observer location to see the next 7 days of passes ≥ 10°. The values pass through the URL so the page stays shareable.

No JS? Fill the form by hand. The geolocation button needs JavaScript.